Hauptseite
METAR-TAF:

METAR-TAF

Flughäfen :

Elsenborn

Bütgenbach, Belgien

Breite: 50-28N, Länge: 006-11E, Höhe: 564 m

Beobachtung

Neuester Wetterbericht von vor 18 Minuten, um 08:46 UTC
Wind 6 kt aus Süd/Südwest
Temperatur 7°C
Luftfeuchtigkeit 93%
Luftdruck 1018 hPa
Sichtweite 10 km oder mehr

METAR: EBLB 280846Z AUTO 21006KT 9999 FEW003/// 07/06 Q1018 BLU

Zeit: 11:04 (09:04 UTC)


TAF: fehlend

Wetterbeobachtungen und Prognosen von mehr als 4000 Flughäfen (METAR und TAF Bericht).

Die verfügbaren Stationen werden durch gelbe und rote Markierungen auf der Karte dargestellt.

Führen Sie die Maus auf sie, um den Namen der Station zu sehen.

Darauf klicken, um die Beobachtung von Wetterbeobachtungen und Prognosen zu sehen.

Um die Karte zu ändern : klicken Sie auf den grünen Tasten mit einem schwarzen Kreuz Zum Vergrößern, auf den grünen Button mit einem Gedankenstrich zu verkleinern, oder auf die grünen Pfeile für benachbarte Karten.


METAR-TAF: